Other Public Products
Issued by NWS Grand Forks, ND

Home | Current Version | Previous Version | Graphics & Text | Print | Product List | Glossary On
Versions: 1 2 3 4 5 6 7 8 9 10 11 12 13 14 15 16 17 18 19 20 21 22 23 24 25 26 27 28 29 30 31 32 33 34 35 36 37 38 39 40 41 42 43 44 45 46 47 48 49 50
000
FPUS83 KFGF 030010
OPUFGF
PRAIRIE TO PINES WEATHER ROUNDUP
NATIONAL WEATHER SERVICE EASTERN NORTH DAKOTA/GRAND FORKS ND
700 PM CDT SAT MAY 02 2015

 **SATELLITE DATA USED TO AUGMENT SKY COVER AT AUTOMATED STATIONS**
 *****  WEATHER ACROSS EASTERN NORTH DAKOTA  *****

CITY           SKY/WX    TMP DP  RH WIND       PRES   REMARKS
GRAND FORKS    CLOUDY    71  48  43 SE13      29.57F
6HR MIN TEMP:  67; 6HR MAX TEMP:  86; 6HR PCP:  0.01;

GRAND FORKS AF CLOUDY    71  47  43 SE16      29.56F
GRAND CITY NWS   N/A     70 N/A N/A SE12        N/A
BUXTON         NOT AVBL
DEVILS LAKE    MOSUNNY   79  36  21 NW16      29.54S
6HR MIN TEMP:  73; 6HR MAX TEMP:  82; 6HR PCP:  0.01;

FARGO          LGT RAIN  64  54  69 N9        29.68R
6HR MIN TEMP:  64; 6HR MAX TEMP:  87; 6HR PCP:  0.04;

WAHPETON ARPT  MOCLDY    82  27  13 S18       29.58S
$$

 *****  WEATHER ACROSS CENTRAL AND WESTERN NORTH DAKOTA  *****

CITY           SKY/WX    TMP DP  RH WIND       PRES   REMARKS
JAMESTOWN      PTSUNNY   80  36  20 SW15G24   29.55S
6HR MIN TEMP:  79; 6HR MAX TEMP:  86; 6HR PCP: TRACE;

BISMARCK       MOSUNNY   80  31  16 NW18G26   29.62R
6HR MIN TEMP:  80; 6HR MAX TEMP:  87;

MINOT          PTSUNNY   75  31  19 NW20      29.62R
6HR MIN TEMP:  74; 6HR MAX TEMP:  80; 6HR PCP: TRACE;

MINOT AFB      PTSUNNY   74  33  21 NW20G29   29.61R
6HR MIN TEMP:  73; 6HR MAX TEMP:  78;

GARRISON         N/A     78  30  17 NW18      29.62R
6HR MIN TEMP:  72; 6HR MAX TEMP:  82;

WILLISTON      MOSUNNY   75  32  20 N15G21    29.66S
6HR MIN TEMP:  73; 6HR MAX TEMP:  78; 6HR PCP: TRACE;

DICKINSON      PTSUNNY   75  23  14 W18G24    29.66S
6HR MIN TEMP:  72; 6HR MAX TEMP:  79;

HETTINGER      MOSUNNY   76  25  15 NW17G25   29.69S
6HR MIN TEMP:  74; 6HR MAX TEMP:  80;

$$

 *****  OTHER OBSERVATIONS NORTHEAST NORTH DAKOTA  *****

CITY           SKY/WX    TMP DP  RH WIND       PRES   REMARKS
WALHALLA       FAIR      68  48  49 SE12      29.53F
LANGDON        MOCLDY    77  36  22 NW18      29.55S
CAVALIER       FAIR      73  45  35 S14       29.53F
GRAFTON        FAIR      73  46  38 S22G33    29.53F
CANDO          FAIR      77  30  18 NW15G22   29.57R
FORT TOTTEN    NOT AVBL
ROLLA          NOT AVBL
RUGBY          NOT AVBL
 ***** THE ABOVE OBSERVATIONS ARE NON NWS ARE NOT QUALITY
        CONTROLLED AND MAY MIS-REPORT RAIN FOR SNOW...
$$

 *****  OTHER OBSERVATIONS SOUTHEAST NORTH DAKOTA *****

CITY           SKY/WX    TMP DP  RH WIND       PRES   REMARKS
COOPERSTOWN    NOT AVBL
VALLEY CITY    FAIR      72  50  46 SE8G17    29.58S
OAKES            N/A     68  52  56 SW9G35    29.63R
GWINNER        MOCLDY    81  43  26 W15       29.62R
SHEYENNE NWR     N/A     75  48  38 SW21      29.95S
BUFFALO        NOT AVBL
WYNDMERE         N/A     81  36  19 W9          N/A
 ***** THE ABOVE OBSERVATIONS ARE NON NWS ARE NOT QUALITY
       CONTROLLED AND MAY MIS-REPORT RAIN FOR SNOW...
$$

  *****  WEATHER ACROSS NORTHERN MINNESOTA  *****

CITY           SKY/WX    TMP DP  RH WIND       PRES   REMARKS
FLAG ISLAND    CLOUDY    59  52  77 SE5       29.60F
WARROAD        CLOUDY    70  46  43 SW6       29.61F
ROSEAU         CLOUDY    73  41  31 SW24G30   29.59F
HALLOCK        CLOUDY    73  41  31 S15       29.55F
THF RVR FALLS  CLOUDY    66  46  48 S16G24    29.63F
6HR MIN TEMP:  66; 6HR MAX TEMP:  82;

HALSTAD        NOT AVBL
FOSSTON        NOT AVBL
BAUDETTE       LGT RAIN  68  44  42 W10       29.64R
6HR MIN TEMP:  67; 6HR MAX TEMP:  82; 6HR PCP: TRACE;

WASKISH        PTSUNNY   77  37  24 S3G18     29.63F
CROOKSTON      LGT RAIN  68  48  49 S15       29.61F
$$
  *****  WEATHER ACROSS CENTRAL AND WEST MINNESOTA  *****

CITY           SKY/WX    TMP DP  RH WIND       PRES   REMARKS
BEMIDJI        CLOUDY    74  34  23 S10G18    29.66S
PARK RAPIDS    PTSUNNY   76  34  21 S14       29.66F
6HR MIN TEMP:  76; 6HR MAX TEMP:  81;

WADENA         PTSUNNY   75  41  29 S13       29.66F
DETROIT LAKES  CLOUDY    75  36  23 S8        29.66R
MOORHEAD       RAIN      66  52  59 NW24G40   29.69R
FERGUS FALLS   MOSUNNY   81  41  24 S15       29.61S
ELBOW LAKE     FAIR      79  40  24 S17       29.62F
6HR MIN TEMP:  77; 6HR MAX TEMP:  82;

MORRIS MN      SUNNY     82  39  21 S20       29.63F
STAPLES        SUNNY     75  37  25 S13       29.68F
WHEATON        MOSUNNY   81  39  22 S17G23    29.61F
$$
  *****  WEATHER ELSEWHERE ACROSS MINNESOTA  *****

CITY           SKY/WX    TMP DP  RH WIND       PRES   REMARKS
DULUTH         MOSUNNY   69  42  37 SE7       29.74F
6HR MIN TEMP:  69; 6HR MAX TEMP:  78;

INTRNTL FALLS  PTSUNNY   76  35  22 SW14G28   29.63R
6HR MIN TEMP:  76; 6HR MAX TEMP:  82;

ELY            PTSUNNY   73  30  20 S10       29.70S
CLOQUET        SUNNY     75  30  19 S10       29.74S
BRAINERD       SUNNY     76  40  27 S14G24    29.70F
6HR MIN TEMP:  75; 6HR MAX TEMP:  79;

HIBBING        MOSUNNY   75  30  19 SW14G20   29.70F
6HR MIN TEMP:  75; 6HR MAX TEMP:  82;

ALEXANDRIA     MOSUNNY   78  37  22 S13       29.68F
6HR MIN TEMP:  75; 6HR MAX TEMP:  80;

SAINT CLOUD    SUNNY     77  42  28 S15G21    29.70F
6HR MIN TEMP:  75; 6HR MAX TEMP:  79;

MINNEAPOLIS    MOSUNNY   78  43  28 S6        29.74F
6HR MIN TEMP:  75; 6HR MAX TEMP:  80;

$$

  *****  WEATHER ACROSS SOUTH DAKOTA  *****

CITY           SKY/WX    TMP DP  RH WIND       PRES   REMARKS
SIOUX FALLS    MOSUNNY   77  50  38 S14       29.73F
6HR MIN TEMP:  76; 6HR MAX TEMP:  81;

BROOKINGS      SUNNY     79  43  27 S15G21    29.71S
WATERTOWN      SUNNY     79  39  23 S16       29.68F
6HR MIN TEMP:  79; 6HR MAX TEMP:  84;

HURON          SUNNY     82  42  24 S15       29.65S
6HR MIN TEMP:  80; 6HR MAX TEMP:  85;

SISSETON         N/A     83  39  21 SW22      29.59F
ABERDEEN       MOSUNNY   85  36  17 S22       29.59F
6HR MIN TEMP:  82; 6HR MAX TEMP:  88;

MITCHELL       SUNNY     83  46  27 S12       29.67F
PIERRE         PTSUNNY   82  39  21 S17       29.60S
6HR MIN TEMP:  83; 6HR MAX TEMP:  89;

MOBRIDGE       MOSUNNY   86  35  16 NW16      29.58R
RAPID CITY     PTSUNNY   77  30  17 N14       29.72R
6HR MIN TEMP:  77; 6HR MAX TEMP:  86;

$$

  *****  SOME WEATHER IN NEARBY STATES *****

CITY           SKY/WX    TMP DP  RH WIND       PRES   REMARKS
GLASGOW MT     MOSUNNY   66  37  34 N23G33    29.74R
6HR MIN TEMP:  66; 6HR MAX TEMP:  71;

GREAT FALLS MT MOSUNNY   62  36  37 NE18      29.80R
6HR MIN TEMP:  62; 6HR MAX TEMP:  68;

CHEYENNE WY    CLOUDY    60  35  39 W16G24    29.94F
6HR MIN TEMP:  57; 6HR MAX TEMP:  73; 6HR PCP:  0.03;

SCOTTSBLUFF NE MOSUNNY   81  34  18 W8        29.76F
6HR MIN TEMP:  78; 6HR MAX TEMP:  83;

OMAHA NE       SUNNY     72  57  59 SE20      29.79F
6HR MIN TEMP:  66; 6HR MAX TEMP:  73;

DES MOINES IA  MOSUNNY   65  55  70 S15       29.89F
6HR MIN TEMP:  63; 6HR MAX TEMP:  66; 6HR PCP: TRACE;

DAVENPORT IA   CLOUDY    70  49  47 W17       29.96R
6HR MIN TEMP:  70; 6HR MAX TEMP:  78;

CHICAGO IL     PTCLDY    74  35  24 SW9       29.94S
6HR MIN TEMP:  72; 6HR MAX TEMP:  76;

EAU CLAIRE WI  SUNNY     76  43  30 S13       29.78F
6HR MIN TEMP:  75; 6HR MAX TEMP:  80;

LA CROSSE WI   MOSUNNY   76  49  38 S16       29.82F
6HR MIN TEMP:  76; 6HR MAX TEMP:  82;

$$

  *****  SOME NATIONAL WEATHER *****

CITY           SKY/WX    TMP DP  RH WIND       PRES   REMARKS



USA.gov is the U.S. government's official web portal to all federal, state and local government web resources and services.